OpenBCM V1.07b12 (Linux)

Packet Radio Mailbox

DB0FHN

[JN59NK Nuernberg]

 Login: GUEST





  
I6KZR  > KEPLER   01.02.03 17:10l 2944 Lines 79087 Bytes #999 (0) @ WW
BID : 21467_IK6WID
Read: DB0FHN GUEST
Subj: Old Istantrak Keplerians #032
Path: DB0FHN<DB0RGB<DB0MRW<DB0HOT<OK0PBX<OK0PHL<OK0PCC<OK0PPR<OK0PPL<RZ6HXA<
      SP7MGD<IK6PYS<I6ZLO<IK6WID
Sent: 030201/1416Z @:IK6WID.#AP.IMAR.ITA.EU #:21467 [MONTE URANO]  FBB7.00i
From: I6KZR@IK6WID.#AP.IMAR.ITA.EU
To  : KEPLER@WW


Satellite: OSCAR 7
Catalog number: 07530
Epoch time:      103032.13423197
Element set:     146 
Inclination:      101.7643 deg
RA of node:        80.0832 deg
Eccentricity:    0.0012239
Arg of perigee:   111.3421 deg
Mean anomaly:     248.8957 deg
Mean motion:   12.53564074 rev/day
Decay rate:   -2.9000E-007 rev/day^2
Epoch rev:           29100
Checksum:              263

Satellite: GOES 2
Catalog number: 10061
Epoch time:      103028.56527598
Element set:     70 
Inclination:       14.1264 deg
RA of node:        13.5931 deg
Eccentricity:    0.0013180
Arg of perigee:   196.1337 deg
Mean anomaly:     163.8523 deg
Mean motion:    0.99391768 rev/day
Decay rate:    9.9999E-009 rev/day^2
Epoch rev:            3862
Checksum:              321

Satellite: GOES 3
Catalog number: 10953
Epoch time:      103030.98713298
Element set:     909 
Inclination:       13.4014 deg
RA of node:        17.3732 deg
Eccentricity:    0.0005252
Arg of perigee:   340.3136 deg
Mean anomaly:      19.7011 deg
Mean motion:    1.00278645 rev/day
Decay rate:   -1.0600E-006 rev/day^2
Epoch rev:            4331
Checksum:              250

Satellite: GOES 6
Catalog number: 14050
Epoch time:      103028.11159657
Element set:     417 
Inclination:       10.3721 deg
RA of node:        35.6208 deg
Eccentricity:    0.0003104
Arg of perigee:   350.7939 deg
Mean anomaly:       9.2480 deg
Mean motion:    1.00296104 rev/day
Decay rate:    4.1999E-007 rev/day^2
Epoch rev:           13042
Checksum:              262

Satellite: OSCAR 10
Catalog number: 14129
Epoch time:      103022.69371816
Element set:     912 
Inclination:       25.8918 deg
RA of node:       168.7550 deg
Eccentricity:    0.6038640
Arg of perigee:   321.4060 deg
Mean anomaly:       7.9531 deg
Mean motion:    2.05867100 rev/day
Decay rate:    2.2900E-006 rev/day^2
Epoch rev:           11951
Checksum:              280

Satellite: OSCAR 11 (UoSA
Catalog number: 14781
Epoch time:      103031.53500548
Element set:     58 
Inclination:       98.1145 deg
RA of node:         5.3241 deg
Eccentricity:    0.0008154
Arg of perigee:   270.3558 deg
Mean anomaly:      89.6716 deg
Mean motion:   14.77937947 rev/day
Decay rate:    1.2389E-005 rev/day^2
Epoch rev:            1357
Checksum:              314

Satellite: NOAA 10
Catalog number: 16969
Epoch time:      103031.87966548
Element set:     647 
Inclination:       98.7276 deg
RA of node:        26.0283 deg
Eccentricity:    0.0012926
Arg of perigee:   135.1869 deg
Mean anomaly:     225.0357 deg
Mean motion:   14.27056324 rev/day
Decay rate:    1.3100E-006 rev/day^2
Epoch rev:           85138
Checksum:              324

Satellite: GOES 7
Catalog number: 17561
Epoch time:      103013.52827387
Element set:     810 
Inclination:        7.5470 deg
RA of node:        55.7264 deg
Eccentricity:    0.0004064
Arg of perigee:   288.6625 deg
Mean anomaly:     149.4031 deg
Mean motion:    1.00317770 rev/day
Decay rate:    1.1600E-006 rev/day^2
Epoch rev:            4138
Checksum:              275

Satellite: COSMOS 1861
Catalog number: 18129
Epoch time:      103031.43396828
Element set:     196 
Inclination:       82.9257 deg
RA of node:       159.9653 deg
Eccentricity:    0.0010311
Arg of perigee:   280.7720 deg
Mean anomaly:      79.2273 deg
Mean motion:   13.72699122 rev/day
Decay rate:    7.2000E-007 rev/day^2
Epoch rev:           78202
Checksum:              321

Satellite: EUTELSAT 1-F4 
Catalog number: 18351
Epoch time:      103030.70479149
Element set:     31 
Inclination:        7.1591 deg
RA of node:        58.7264 deg
Eccentricity:    0.0007660
Arg of perigee:   210.3813 deg
Mean anomaly:     149.6320 deg
Mean motion:    0.98688078 rev/day
Decay rate:   -4.1999E-007 rev/day^2
Epoch rev:            4249
Checksum:              434

Satellite: NOAA 11
Catalog number: 19531
Epoch time:      103031.89892801
Element set:     485 
Inclination:       98.9043 deg
RA of node:       113.3389 deg
Eccentricity:    0.0010922
Arg of perigee:   252.1289 deg
Mean anomaly:     107.8691 deg
Mean motion:   14.14529102 rev/day
Decay rate:    1.9399E-006 rev/day^2
Epoch rev:           74030
Checksum:              314

Satellite: ASTRA 1A
Catalog number: 19688
Epoch time:      103029.75771711
Element set:     566 
Inclination:        1.3459 deg
RA of node:        94.9986 deg
Eccentricity:    0.0004915
Arg of perigee:   207.7171 deg
Mean anomaly:     103.8285 deg
Mean motion:    1.00273261 rev/day
Decay rate:    2.6000E-007 rev/day^2
Epoch rev:            3199
Checksum:              306

Satellite: OSCAR 14 (UOSA
Catalog number: 20437
Epoch time:      103031.18228598
Element set:     154 
Inclination:       98.2749 deg
RA of node:        75.6719 deg
Eccentricity:    0.0009862
Arg of perigee:   257.9827 deg
Mean anomaly:     102.0251 deg
Mean motion:   14.31231244 rev/day
Decay rate:    1.0799E-006 rev/day^2
Epoch rev:           67986
Checksum:              336

Satellite: OSCAR 15 (UOSA
Catalog number: 20438
Epoch time:      103031.53832508
Element set:     769 
Inclination:       98.2513 deg
RA of node:        65.2130 deg
Eccentricity:    0.0009041
Arg of perigee:   269.4481 deg
Mean anomaly:      90.5674 deg
Mean motion:   14.30192639 rev/day
Decay rate:    7.4000E-007 rev/day^2
Epoch rev:           67958
Checksum:              314

Satellite: OSCAR 16 (PACS
Catalog number: 20439
Epoch time:      103031.68949433
Element set:     845 
Inclination:       98.3209 deg
RA of node:        87.7344 deg
Eccentricity:    0.0010099
Arg of perigee:   262.8197 deg
Mean anomaly:      97.1848 deg
Mean motion:   14.31463947 rev/day
Decay rate:    1.2299E-006 rev/day^2
Epoch rev:           67997
Checksum:              367

Satellite: OSCAR 17 (DOVE
Catalog number: 20440
Epoch time:      103029.72509271
Element set:     728 
Inclination:       98.3393 deg
RA of node:        89.6988 deg
Eccentricity:    0.0010462
Arg of perigee:   270.0069 deg
Mean anomaly:      89.9920 deg
Mean motion:   14.31740944 rev/day
Decay rate:    1.8299E-006 rev/day^2
Epoch rev:           67976
Checksum:              354

Satellite: OSCAR 18 (WEBE
Catalog number: 20441
Epoch time:      103031.88099978
Element set:     1 
Inclination:       98.3388 deg
RA of node:        90.9931 deg
Eccentricity:    0.0010796
Arg of perigee:   261.3849 deg
Mean anomaly:      98.6110 deg
Mean motion:   14.31545959 rev/day
Decay rate:    1.1299E-006 rev/day^2
Epoch rev:           68005
Checksum:              338

Satellite: OSCAR 19 (LUSA
Catalog number: 20442
Epoch time:      103031.23245576
Element set:     952 
Inclination:       98.3526 deg
RA of node:        93.3622 deg
Eccentricity:    0.0011105
Arg of perigee:   264.0548 deg
Mean anomaly:      95.9368 deg
Mean motion:   14.31708513 rev/day
Decay rate:    1.2199E-006 rev/day^2
Epoch rev:           68001
Checksum:              298

Satellite: JAS 1B (FUJI 2
Catalog number: 20480
Epoch time:      103031.84956224
Element set:     459 
Inclination:       99.0443 deg
RA of node:       357.9286 deg
Eccentricity:    0.0540928
Arg of perigee:    43.9732 deg
Mean anomaly:     320.3131 deg
Mean motion:   12.83329264 rev/day
Decay rate:    1.5999E-007 rev/day^2
Epoch rev:           60824
Checksum:              328

Satellite: HST
Catalog number: 20580
Epoch time:      103031.69923885
Element set:     314 
Inclination:       28.4655 deg
RA of node:       154.1509 deg
Eccentricity:    0.0004392
Arg of perigee:    79.5122 deg
Mean anomaly:      12.2132 deg
Mean motion:   14.97738524 rev/day
Decay rate:    2.4940E-005 rev/day^2
Epoch rev:           49995
Checksum:              309

Satellite: EUTELSAT 2-F1
Catalog number: 20777
Epoch time:      103030.68024898
Element set:     23 
Inclination:        3.4545 deg
RA of node:        84.7257 deg
Eccentricity:    0.0000759
Arg of perigee:   290.8967 deg
Mean anomaly:      74.7691 deg
Mean motion:    1.00270725 rev/day
Decay rate:   -1.1099E-006 rev/day^2
Epoch rev:            2591
Checksum:              313

Satellite: FENGYUN 1B
Catalog number: 20788
Epoch time:      103032.19350467
Element set:     871 
Inclination:       99.0257 deg
RA of node:        14.5474 deg
Eccentricity:    0.0015102
Arg of perigee:   280.0078 deg
Mean anomaly:      79.9383 deg
Mean motion:   14.02136830 rev/day
Decay rate:   -1.5099E-006 rev/day^2
Epoch rev:           63510
Checksum:              297

Satellite: EUTELSAT 2-F2
Catalog number: 21056
Epoch time:      103028.05627895
Element set:     613 
Inclination:        2.6793 deg
RA of node:        88.1781 deg
Eccentricity:    0.0003016
Arg of perigee:   259.4382 deg
Mean anomaly:     207.9268 deg
Mean motion:    1.00269467 rev/day
Decay rate:    1.1600E-006 rev/day^2
Epoch rev:            3166
Checksum:              296

Satellite: INFORMATOR 1
Catalog number: 21087
Epoch time:      103031.87496669
Element set:     595 
Inclination:       82.9440 deg
RA of node:       330.5081 deg
Eccentricity:    0.0034265
Arg of perigee:   302.1982 deg
Mean anomaly:      57.5849 deg
Mean motion:   13.74924548 rev/day
Decay rate:    7.2000E-007 rev/day^2
Epoch rev:           60245
Checksum:              318

Satellite: COSMOS 2123
Catalog number: 21089
Epoch time:      103029.95755780
Element set:     494 
Inclination:       82.9213 deg
RA of node:       195.9229 deg
Eccentricity:    0.0029641
Arg of perigee:   344.0752 deg
Mean anomaly:      15.9468 deg
Mean motion:   13.74402124 rev/day
Decay rate:    7.0999E-007 rev/day^2
Epoch rev:           60109
Checksum:              438

